Regional Weather Roundup
Issued by NWS

Home | Current Version | Previous Version | Text Only | Print | Product List | Glossary On
Versions: 1 2 3 4 5 6 7 8 9 10 11 12 13 14 15 16 17 18 19 20 21 22 23 24 25 26 27 28 29 30 31 32 33 34 35 36 37 38 39 40 41 42 43 44 45 46 47 48 49 50
000
ASUS43 KDMX 161106
RWRIA

WEATHER ROUNDUP FOR IOWA
NATIONAL WEATHER SERVICE DES MOINES IA
500 AM CST MON JAN 16 2017

NOTE: "FAIR" INDICATES FEW OR NO CLOUDS BELOW 12,000 FEET WITH NO
SIGNIFICANT WEATHER AND/OR OBSTRUCTIONS TO VISIBILITY.

* - THESE STATIONS ARE NOT NWS STATIONS...THUS NOT UNDER NWS
QUALITY CONTROL.  THEY ALSO DO NOT REPORT WEATHER SUCH
AS PRECIPITATION OR FOG.

IAZ001>003-012>014-020>022-031>034-043>046-161200-
   NORTHWEST IOWA

CITY           SKY/WX    TMP DP  RH WIND       PRES   REMARKS
CARROLL *      MIX PCPN  32  32 100 E9        30.11S WCI  24
CHEROKEE *     CLOUDY    31  31 100 CALM      30.11S
DENISON *      CLOUDY    32  32 100 E10       30.07S WCI  24
LE MARS *      MIX PCPN  30  30 100 NE5       30.11S WCI  25
ORANGE CITY *  MIX PCPN  28  27  93 E3        30.10S
SHELDON *      CLOUDY    27  27 100 E6        30.09S WCI  20
SIOUX CITY     LGT RAIN  33  31  92 NE5       30.09F FOG     WCI  29
SPENCER        CLOUDY    27  26  96 E5        30.12F FOG     WCI  22
STORM LAKE *   MIX PCPN  30  30 100 E8        30.09S WCI  23
$$

IAZ055>058-069>071-079>083-090>094-161200-
   SOUTHWEST IOWA

CITY           SKY/WX    TMP DP  RH WIND       PRES   REMARKS
ATLANTIC *     CLOUDY    32  32 100 NE9       30.07F WCI  24
AUDUBON *      MIX PCPN  30  28  93 E6        30.09F WCI  24
CLARINDA *     CLOUDY    32  32 100 NE10      30.06F FOG     WCI  24
COUNCIL BLFS * CLOUDY    32  32 100 E10       30.04F FOG     WCI  24
CRESTON *      MIX PCPN  30  30 100 E14       30.08F VSB 1/2 WCI  20
HARLAN  *      CLOUDY    32  32 100 E12       30.11F WCI  23
LAMONI         CLOUDY    31  30  96 NE9       30.06F FOG     WCI  23
RED OAK *      CLOUDY    32  32 100 E8        30.06F FOG     WCI  25
SHENANDOAH *   CLOUDY    32  32 100 NE10      30.04F FOG     WCI  24
$$

IAZ047>049-059>061-072>074-084-161200-
   CENTRAL IOWA

CITY           SKY/WX    TMP DP  RH WIND       PRES   REMARKS
AMES           CLOUDY    31  31 100 SE8       30.15S FOG     WCI  23
ANKENY *       CLOUDY    30  30 100 MISG      30.15F FOG
BOONE *        CLOUDY    32  32 100 MISG      30.12S FOG
CHARITON *     MIX PCPN  30  30 100 E10       30.11F WCI  21
DES MOINES     FRZ RAIN  32  29  88 E7        30.13F FOG     WCI  26
GRINNELL*      CLOUDY    30  29  96 E10       30.15F FOG     WCI  21
KNOXVILLE *    MIX PCPN  32  30  93 E8        30.12F WCI  25
MARSHALLTOWN   FRZ RAIN  30  29  96 E13       30.15F FOG     WCI  20
NEWTON *       CLOUDY    30  30 100 E10       30.14F FOG     WCI  21
PELLA *        MIX PCPN  31  31  96 E8        30.15F WCI  24
PERRY *        DRIZZLE   32  32 100 E7        30.13S WCI  25
$$

IAZ004>006-015-016-023>025-035-036-161200-
   NORTH CENTRAL IOWA

CITY           SKY/WX    TMP DP  RH WIND       PRES   REMARKS
ALGONA *       CLOUDY    30  30 100 E5        30.13S FOG     WCI  25
CLARION *      CLOUDY    30  30 100 E9        30.13F FOG     WCI  22
ESTHERVILLE    CLOUDY    26  26 100 E3        30.11F FOG
FORT DODGE *   CLOUDY    30  27  86 CALM      30.13S
MASON CITY     CLOUDY    28  26  92 E7        30.16F FOG     WCI  21
FOREST CITY *  MIX PCPN  28  28 100 E6        30.15F WCI  22
WEBSTER CITY * CLOUDY    30  32 100 SE10      30.11F WCI  21
IOWA FALLS *   MIX PCPN  31  30  94 E7        30.15S WCI  25
$$

IAZ007>011-017>019-026>030-037>042-050>054-066-161200-
   NORTHEAST IOWA

CITY           SKY/WX    TMP DP  RH WIND       PRES   REMARKS
CEDAR RAPIDS   MIX PCPN  30  28  92 E10       30.18F FOG     WCI  21
CHARLES CITY * CLOUDY    30  28  93 SE8       30.17F FOG     WCI  23
CLINTON *      MIX PCPN  31  30  96 E8        30.23F FOG     WCI  23
DECORAH *      CLOUDY    28  25  86 SE5       30.18F WCI  23
DUBUQUE        FRZ RAIN  29  27  92 SE8       30.21F FOG     WCI  21
MONTICELLO *   CLOUDY    30  28  93 E7        30.20F FOG     WCI  23
OELWEIN *      CLOUDY    30  30 100 E10       30.18F FOG     WCI  21
WATERLOO       FRZ RAIN  30  27  88 SE8       30.18F FOG     WCI  22
$$

IAZ064-065-067-068-078-161200-
   EAST CENTRAL IOWA

CITY           SKY/WX    TMP DP  RH WIND       PRES   REMARKS
DAVENPORT      FRZ RAIN  31  30  96 E10       30.22F FOG     WCI  22
IOWA CITY      FRZ RAIN  32  30  92 E7        30.21F FOG     WCI  26
MUSCATINE *    CLOUDY    32  32 100 E8        30.21F FOG     WCI  25
QUAD CITIES    MIX PCPN  32  29  88 E7        30.22S FOG     WCI  26
$$

IAZ062-063-075>077-085>089-095>099-161200-
   SOUTHEAST IOWA

CITY           SKY/WX    TMP DP  RH WIND       PRES   REMARKS
BURLINGTON     FRZ RAIN  32  32 100 E7        30.18S VSB 3/4 WCI  26
FAIRFIELD *    FOG       32  30  93 E13       30.16S VSB 3/4 WCI  22
FORT MADISON * MIX PCPN  32  30  93 E7        30.17F VSB 3/4 WCI  26
KEOKUK *       FOG       32  32 100 E9        30.15F VSB 1/2 WCI  24
OSKALOOSA *    LGT RAIN  31  30  96 E10       30.15F WCI  22
CENTERVILLE *  LGT RAIN  32  32 100 CALM      30.12F
OTTUMWA        FRZ RAIN  32  30  92 E12       30.14F VSB 1   WCI  23
WASHINGTON *   CLOUDY    32  32 100 E13       30.19S FOG     WCI  22
$$

ABBREVIATIONS USED IN REMARKS
   TC - TEMPERATURES IN CELSIUS
  WCI - WIND CHILL INDEX
   HX - HEAT INDEX
  VSB - VISIBILITY
$$




USA.gov is the U.S. government's official web portal to all federal, state and local government web resources and services.